Temperature
18 19 19 18 18 18 18 18 18 18 18 18 18 18 18 18 18 18 18 18 18 18 18 18 18 18 18 18 19 19 19 19 19 19 18 18 18 18 18 18 18 18 18
18 19 18 18 18 18 18 18 18 18 18 18 18 18 18 18 18 18 18 18 18 18 18 18 18 18 18 18 18 18 18 19 19 18 18 18 18 18 18 18 18 18 18
18 18 18 18 18 18 18 18 18 18 18 18 18 18 18 18 18 18 18 18 18 18 18 18 18 18 18 18 18 18 18 18 18 18 18 18 18 18 18 18 18 18 18
18 18 18 18 18 18 18 18 18 18 18 18 17 17 17 17 17 17 17 17 17 17 17 18 18 18 18 18 18 18 18 18 18 18 18 17 17 18 18 18 18 18 18
18 18 18 18 18 18 18 18 17 17 17 17 17 17 17 17 17 17 17 17 17 17 17 17 17 17 17 18 18 18 18 18 18 18 18 17 17 18 18 18 18 18 18
18 18 18 18 18 18 18 17 17 17 17 17 17 17 17 17 17 17 17 17 17 17 17 17 17 17 17 17 18 18 18 18 18 18 17 17 18 18 18 18 18 18 18
19 18 18 18 18 18 17 17 17 17 16 16 16 16 16 17 17 17 17 17 17 17 17 17 17 17 17 17 18 18 18 18 18 18 17 18 18 18 18 18 18 18 18
19 19 19 18 18 18 17 17 17 16 16 16 16 16 16 16 16 16 16 16 16 16 16 16 17 17 17 17 17 18 18 18 18 18 17 17 18 18 18 18 18 18 18
19 19 18 18 18 18 17 17 17 17 16 16 16 16 16 16 16 16 16 16 16 16 16 16 16 16 17 17 17 17 18 18 18 18 18 18 18 18 18 18 18 18 18
19 19 19 18 18 18 17 17 17 17 16 16 16 16 16 16 16 16 15 16 16 16 16 16 16 16 16 17 17 17 17 18 18 18 18 17 18 18 18 18 18 18 18
20 20 19 19 18 18 18 17 17 17 16 16 16 16 16 16 16 16 15 16 16 16 16 16 16 16 16 16 17 17 17 17 18 17 17 17 17 18 18 18 18 18 18
20 20 20 20 19 19 18 18 17 17 17 16 16 16 16 16 16 16 16 16 15 15 15 15 15 16 16 16 16 16 17 17 17 17 17 17 17 18 18 18 18 18 18
21 20 20 20 19 19 18 18 17 17 17 17 16 16 16 16 16 16 16 15 15 15 15 15 15 16 16 16 16 16 16 17 17 17 17 17 17 18 18 18 18 18 18
21 21 20 20 20 19 18 18 18 17 17 17 16 16 16 16 16 16 16 16 15 15 15 15 15 15 16 16 16 16 16 17 17 17 17 17 17 18 18 18 18 18 18
21 21 20 20 20 19 19 18 18 18 17 17 16 16 16 16 15 15 15 15 15 15 15 15 15 15 16 16 16 16 16 16 17 17 17 17 17 17 17 18 17 18 17
21 21 20 20 19 19 19 18 18 18 17 17 16 16 16 16 16 15 15 15 15 15 15 15 15 15 15 16 16 16 16 16 16 16 17 17 17 17 17 17 17 17 17
22 21 20 20 19 19 19 18 18 18 17 17 16 16 16 16 16 15 15 15 15 15 15 15 15 15 15 15 15 16 16 16 16 16 16 16 17 17 17 17 17 17 17
22 21 21 20 19 19 18 18 18 17 17 16 16 16 16 15 15 15 15 14 14 14 14 14 15 15 15 15 15 16 16 16 16 16 16 16 16 16 17 17 17 17 17
22 21 21 20 19 19 18 18 18 17 17 16 16 15 15 15 15 15 14 14 14 14 14 14 14 14 15 15 15 15 16 16 16 16 16 16 16 16 16 17 17 17 17
22 21 21 20 19 19 18 18 18 17 17 16 16 15 15 15 14 14 14 14 14 14 14 14 14 14 15 15 15 15 15 15 16 16 16 16 16 16 16 16 17 17 17
22 21 21 20 20 19 18 18 18 17 17 16 16 15 15 14 14 14 14 14 14 14 14 14 14 14 14 15 15 15 15 16 16 16 16 16 16 16 16 16 16 16 17
21 21 21 20 20 19 19 18 18 17 17 16 16 15 15 14 14 14 14 14 14 14 14 14 14 14 14 14 15 15 15 15 15 16 16 16 16 16 16 16 16 16 16
21 21 21 21 20 19 19 18 17 17 17 16 16 16 15 15 14 14 14 14 14 14 14 14 14 14 14 14 14 15 15 15 15 15 15 15 15 15 16 16 16 16 16
22 21 21 21 20 19 19 18 17 17 17 16 16 16 15 15 15 14 14 14 14 14 14 14 14 14 14 14 14 14 15 15 15 15 15 15 15 15 16 16 16 16 16
21 21 21 20 20 19 19 18 17 17 17 16 16 16 15 15 15 15 14 14 14 14 14 14 14 14 14 14 14 14 15 15 15 15 15 15 15 15 15 15 16 16 16
21 20 20 20 20 19 18 18 17 17 17 16 16 16 16 16 15 15 15 14 14 14 14 14 14 14 14 14 14 14 14 14 15 15 15 15 15 15 15 15 15 15 15
Wind_Speed
10 13 13 12 12 11 11 11 10 10 10 10 10 9 8 8 8 8 7 7 7 7 7 7 8 8 8 8 8 8 8 8 8 7 6 5 6 7 9 10 10 11 12
14 14 13 12 12 11 11 11 11 11 10 10 10 9 9 9 8 7 7 7 6 6 7 7 7 7 7 7 7 7 7 7 7 6 5 4 3 6 8 10 11 9 11
15 15 13 13 12 12 11 11 11 11 10 10 10 9 9 8 8 7 7 6 6 6 6 6 6 6 6 6 6 6 6 7 7 8 8 4 3 6 7 8 9 9 10
14 14 14 13 12 12 11 11 11 10 10 9 9 9 8 7 7 7 6 6 6 6 6 6 6 6 5 6 6 6 6 6 8 9 7 3 6 7 7 7 7 8 9
15 16 14 13 12 12 11 11 10 10 9 9 8 8 8 7 7 6 6 6 6 5 5 5 6 5 5 5 5 5 6 7 8 8 5 4 7 6 6 6 6 7 8
15 16 14 13 12 12 11 10 10 10 9 8 8 7 7 7 6 6 5 5 5 5 5 5 5 5 4 4 5 5 6 7 9 7 2 4 8 6 5 5 5 5 6
14 15 14 13 12 11 11 10 10 9 8 8 7 7 6 5 5 5 5 5 5 5 5 5 5 5 5 4 4 5 6 7 8 7 2 4 9 7 5 4 4 4 5
12 14 15 14 13 12 11 10 9 8 7 6 5 5 4 3 3 3 3 4 5 5 5 5 5 5 5 5 5 5 6 8 7 7 2 6 10 8 5 3 3 3 4
10 11 13 13 12 12 11 9 7 5 4 3 2 2 2 3 3 3 1 2 3 4 5 5 5 5 5 5 6 6 6 7 8 7 4 6 10 8 5 3 3 3 3
8 8 9 12 13 13 11 9 8 6 4 3 2 4 6 7 7 6 3 1 2 3 5 5 6 6 7 7 7 7 7 7 9 8 2 7 10 7 5 3 2 3 4
6 6 7 7 7 9 11 10 10 9 6 6 7 8 8 6 3 5 3 4 3 4 5 6 7 8 9 9 10 10 8 8 8 5 3 9 9 7 5 3 3 4 4
6 5 6 6 5 5 4 7 6 6 7 5 1 2 3 4 5 3 2 4 5 7 8 8 9 10 10 9 9 10 7 9 6 3 6 10 8 6 5 4 4 4 5
7 5 5 5 5 4 3 3 2 1 2 1 4 4 3 5 5 4 1 2 5 6 4 4 7 7 6 4 3 5 6 4 2 1 6 8 7 5 5 4 5 5 6
7 5 4 4 5 5 5 2 1 1 2 3 6 7 5 2 2 3 2 2 3 3 2 3 3 4 4 5 4 3 2 1 1 2 6 8 6 6 5 5 6 6 7
7 6 6 4 5 5 4 1 1 3 2 3 5 5 5 2 3 2 2 2 3 4 2 3 4 4 4 4 3 3 2 1 1 1 5 8 7 6 6 6 7 7 7
8 7 6 4 4 3 3 2 3 2 2 3 5 4 4 3 2 3 4 3 3 4 3 3 4 4 4 3 3 3 2 1 2 0 4 6 6 6 6 6 7 7 7
8 8 7 4 4 5 6 5 3 2 4 3 3 5 6 6 4 3 4 4 4 6 5 3 4 4 5 4 4 3 1 0 1 1 2 5 5 5 7 8 8 7 7
7 9 8 5 5 6 5 4 3 4 4 3 4 6 9 10 8 3 4 4 5 5 4 4 3 3 4 4 3 3 1 0 1 2 1 4 4 5 6 8 8 8 7
6 8 9 7 6 6 5 3 2 3 2 2 5 6 8 10 9 5 3 3 6 4 4 6 4 4 4 4 4 2 1 0 1 2 1 2 4 5 6 8 9 8 7
6 5 9 8 6 6 3 1 3 2 2 2 3 5 5 5 7 5 3 4 4 4 4 4 5 5 3 3 4 2 1 1 0 1 1 2 3 4 6 6 7 7 7
6 5 8 8 6 5 2 1 2 2 1 3 3 4 3 4 6 4 4 4 3 3 4 5 4 6 4 3 2 2 2 1 1 1 1 2 2 2 4 4 5 6 6
6 5 7 8 7 6 3 1 2 2 1 2 1 2 2 4 5 6 5 5 4 3 4 4 4 4 4 4 2 2 2 2 2 1 2 2 1 1 1 2 3 5 5
6 6 4 7 8 7 5 2 3 2 1 1 1 2 1 2 2 3 4 5 5 4 3 4 4 4 4 4 2 1 1 1 1 1 1 2 2 2 1 0 2 4 5
6 5 5 6 7 6 6 4 2 1 1 1 1 1 0 2 2 2 3 4 4 3 4 5 5 4 3 4 3 2 1 0 0 0 1 1 2 2 2 1 1 2 4
4 3 3 5 6 6 5 5 2 1 0 1 0 1 1 1 2 2 0 3 4 3 3 4 3 3 3 3 3 3 3 2 1 1 0 0 1 1 1 1 1 1 3
5 4 4 5 5 5 3 3 4 2 2 2 2 1 1 1 2 3 1 2 3 3 3 3 3 3 3 3 3 3 2 2 2 1 0 0 1 0 1 1 1 1 2
Wind_Direction
103 104 104 102 98 93 88 84 82 79 76 75 72 70 68 66 64 60 56 53 52 50 46 43 41 36 34 35 33 29 27 26 27 24 26 33 44 46 41 39 43 50 48
109 106 103 100 96 92 88 84 80 77 74 72 71 68 66 63 61 57 52 48 45 42 39 35 33 29 26 26 24 20 17 12 8 357 349 357 53 64 54 49 50 47 47
108 109 101 96 95 92 89 85 80 76 72 71 68 65 62 60 55 50 44 39 37 34 32 29 25 22 16 12 10 10 7 356 347 335 324 312 99 83 66 57 53 46 48
107 104 99 98 95 92 88 84 80 76 72 69 66 63 60 56 52 47 40 34 31 28 25 21 19 18 10 5 0 357 352 341 332 328 329 36 85 88 73 60 54 48 50
103 99 100 98 95 91 87 82 80 76 71 67 64 59 55 50 45 41 36 33 28 21 14 9 7 4 356 352 348 341 334 330 326 319 318 66 86 86 71 60 53 51 50
110 106 105 101 97 93 88 83 78 74 70 65 59 54 48 44 39 35 31 25 19 13 4 358 354 347 339 338 331 324 321 318 317 309 330 93 103 97 80 65 55 56 56
113 114 116 112 106 100 93 86 80 73 69 62 54 47 42 38 36 33 27 19 11 6 1 355 345 335 324 318 312 308 309 311 292 290 277 124 120 118 97 77 66 64 67
114 119 122 122 118 112 105 96 86 76 69 60 50 38 26 17 15 13 14 17 9 357 350 346 338 327 314 305 298 298 300 301 305 309 296 137 133 125 111 100 94 85 78
116 126 135 139 135 130 123 117 111 101 89 74 39 343 313 298 285 275 304 20 3 347 334 327 325 319 305 292 286 285 288 289 294 289 282 129 133 129 124 123 118 114 104
124 130 138 148 147 148 146 145 146 151 166 193 233 263 270 269 255 251 234 149 330 322 314 310 304 301 291 280 271 268 269 276 268 267 242 134 131 127 128 134 140 137 131
129 135 133 135 136 150 155 156 173 181 201 223 222 243 268 278 237 224 159 170 235 268 279 284 283 283 277 270 258 252 255 254 257 248 126 133 131 131 138 150 158 155 146
148 140 132 127 130 124 98 140 176 167 182 217 154 216 291 354 353 344 146 217 240 255 266 266 270 276 269 255 245 231 241 247 261 241 141 137 135 138 149 166 173 163 157
137 126 127 127 114 106 105 92 71 92 140 119 52 359 7 15 353 4 355 227 250 254 261 288 263 269 271 261 232 212 232 259 259 126 127 130 136 149 161 173 176 169 166
124 118 104 96 108 95 80 59 188 82 57 58 46 8 31 12 338 17 318 14 333 342 353 324 290 287 297 307 288 252 242 262 291 110 133 136 144 162 170 174 178 174 170
122 123 95 66 67 93 104 263 74 86 42 74 76 358 22 12 358 355 326 9 340 354 349 324 309 319 317 309 310 310 324 324 305 99 136 146 149 164 176 180 181 175 173
145 136 127 122 103 100 115 75 68 63 117 60 70 355 7 30 357 5 358 358 356 345 338 317 313 329 323 316 308 308 300 315 307 319 151 153 161 171 179 184 180 176 174
149 136 122 116 101 77 60 36 54 65 57 48 58 6 12 27 15 35 13 1 349 343 345 342 340 342 326 323 309 296 297 293 314 298 164 158 167 178 181 177 176 171 172
142 130 130 128 108 92 77 46 26 52 49 33 46 31 17 17 17 32 25 357 342 354 353 339 346 344 332 330 325 319 323 109 295 302 228 153 154 162 166 167 163 164 168
130 133 138 128 116 99 102 128 73 54 54 39 52 49 24 5 8 28 1 341 3 360 356 342 1 348 331 326 306 275 278 250 254 282 263 140 140 145 151 162 162 164 170
126 136 125 118 118 115 112 118 100 78 38 62 59 61 28 353 6 14 347 20 12 354 353 346 353 338 314 301 309 329 284 241 168 309 12 105 130 149 145 155 161 170 172
143 145 131 140 139 127 125 111 91 80 40 78 77 77 3 2 10 9 2 360 5 356 355 351 352 338 331 341 354 340 319 249 137 126 80 78 78 107 129 150 160 156 164
153 167 164 151 138 131 127 118 121 102 67 101 80 117 39 31 19 2 12 352 358 353 359 352 359 351 338 355 1 352 356 12 351 103 105 112 101 101 105 158 147 145 153
161 183 175 138 137 140 139 100 66 75 305 111 149 113 104 82 43 11 356 351 343 5 357 347 16 4 344 336 5 33 25 344 340 15 84 107 116 108 108 91 132 144 149
169 176 163 142 139 135 134 119 122 114 15 80 57 114 184 145 104 46 0 342 337 358 3 2 22 349 349 344 344 357 342 260 84 8 357 60 101 100 90 86 99 110 138
117 114 108 110 116 120 125 135 156 207 303 61 33 101 306 147 146 134 350 318 325 350 16 6 5 350 349 353 342 341 348 351 329 135 157 50 55 57 79 72 84 74 132
87 89 93 100 103 113 135 157 177 202 219 235 231 191 270 230 178 153 161 319 332 5 6 357 350 352 359 352 344 342 351 4 353 37 122 165 128 76 80 71 84 82 112
Height
1510 1510 1510 1511 1512 1513 1514 1514 1515 1516 1516 1517 1518 1518 1519 1519 1520 1520 1521 1521 1521 1522 1522 1522 1522 1522 1522 1522 1523 1523 1523 1523 1523 1523 1523 1523 1523 1523 1523 1522 1522 1521 1521
1510 1511 1512 1512 1513 1514 1515 1515 1516 1516 1517 1518 1518 1519 1519 1520 1520 1521 1521 1521 1522 1522 1522 1522 1522 1522 1523 1523 1523 1523 1523 1524 1524 1524 1524 1524 1524 1524 1524 1524 1523 1523 1522
1512 1512 1513 1514 1514 1515 1515 1516 1516 1517 1518 1518 1518 1519 1519 1520 1520 1521 1521 1521 1522 1522 1522 1522 1522 1522 1523 1523 1523 1524 1524 1524 1525 1525 1525 1525 1525 1525 1525 1525 1524 1524 1523
1513 1514 1514 1515 1515 1516 1516 1517 1517 1517 1518 1518 1519 1519 1519 1520 1520 1520 1521 1521 1521 1522 1522 1522 1522 1522 1523 1523 1523 1524 1524 1524 1525 1526 1526 1526 1526 1526 1526 1526 1526 1525 1525
1514 1515 1516 1516 1516 1517 1517 1518 1518 1518 1518 1518 1519 1519 1519 1519 1520 1520 1520 1521 1521 1521 1521 1521 1522 1522 1522 1523 1523 1523 1524 1524 1525 1525 1526 1526 1526 1527 1527 1527 1526 1526 1526
1515 1516 1517 1517 1517 1518 1518 1518 1518 1518 1518 1519 1519 1519 1519 1519 1519 1520 1520 1520 1520 1520 1521 1521 1521 1521 1522 1522 1522 1523 1523 1524 1525 1525 1526 1527 1526 1527 1527 1527 1527 1527 1527
1517 1517 1518 1518 1519 1519 1519 1519 1519 1519 1519 1519 1519 1519 1519 1519 1519 1519 1519 1519 1519 1519 1519 1520 1520 1520 1520 1521 1521 1522 1522 1523 1524 1525 1526 1526 1526 1527 1527 1527 1527 1528 1528
1518 1519 1519 1519 1520 1520 1520 1520 1520 1520 1520 1519 1519 1519 1519 1519 1519 1519 1519 1518 1518 1518 1518 1518 1518 1518 1519 1519 1519 1520 1521 1521 1523 1524 1525 1525 1525 1526 1527 1527 1528 1528 1528
1520 1520 1520 1521 1521 1521 1521 1521 1521 1521 1521 1520 1520 1520 1519 1519 1519 1519 1518 1518 1518 1517 1517 1517 1517 1517 1517 1517 1518 1518 1519 1520 1521 1522 1523 1524 1525 1526 1526 1527 1527 1528 1529
1522 1522 1522 1522 1522 1522 1522 1522 1522 1522 1521 1521 1521 1520 1520 1520 1519 1519 1518 1518 1517 1517 1516 1516 1516 1516 1516 1516 1517 1517 1518 1519 1520 1521 1522 1523 1524 1525 1526 1526 1527 1528 1529
1523 1524 1524 1524 1524 1524 1523 1523 1523 1522 1522 1522 1521 1521 1521 1520 1520 1520 1519 1518 1517 1516 1516 1515 1515 1515 1515 1515 1516 1516 1517 1517 1519 1520 1521 1522 1523 1524 1525 1526 1527 1528 1529
1523 1525 1525 1525 1526 1526 1526 1525 1524 1524 1523 1523 1523 1522 1522 1521 1521 1521 1520 1519 1517 1516 1515 1515 1515 1514 1514 1514 1515 1515 1516 1516 1517 1519 1520 1521 1522 1523 1524 1525 1526 1527 1529
1524 1525 1526 1526 1527 1527 1526 1526 1526 1525 1525 1524 1523 1523 1522 1522 1521 1520 1519 1518 1517 1516 1516 1515 1514 1514 1514 1514 1515 1515 1515 1516 1517 1517 1518 1519 1520 1522 1523 1524 1525 1527 1528
1524 1526 1527 1527 1527 1527 1527 1526 1526 1526 1525 1525 1524 1523 1522 1521 1521 1520 1519 1518 1517 1517 1516 1515 1514 1514 1514 1514 1514 1514 1515 1515 1516 1517 1517 1518 1519 1520 1521 1523 1524 1526 1527
1524 1526 1527 1528 1528 1527 1527 1526 1527 1526 1525 1525 1523 1523 1522 1522 1521 1520 1519 1518 1517 1516 1515 1514 1513 1513 1513 1512 1512 1513 1514 1514 1515 1516 1516 1517 1518 1519 1520 1522 1523 1525 1527
1524 1525 1526 1528 1528 1528 1527 1527 1527 1526 1526 1525 1524 1523 1523 1521 1520 1519 1518 1517 1516 1515 1514 1513 1513 1512 1512 1511 1511 1512 1512 1513 1514 1514 1515 1516 1517 1518 1519 1521 1522 1524 1526
1523 1525 1526 1527 1528 1528 1528 1527 1527 1527 1526 1525 1524 1523 1523 1522 1521 1519 1518 1517 1515 1514 1513 1513 1512 1511 1510 1510 1510 1511 1511 1512 1513 1513 1514 1515 1516 1517 1518 1520 1522 1523 1525
1523 1524 1526 1527 1528 1528 1527 1527 1527 1527 1526 1525 1524 1523 1522 1521 1520 1519 1517 1516 1515 1514 1513 1512 1511 1510 1509 1509 1509 1510 1510 1511 1511 1512 1513 1513 1514 1515 1517 1519 1521 1522 1524
1523 1524 1525 1526 1527 1527 1527 1527 1527 1527 1526 1525 1524 1523 1522 1521 1520 1519 1518 1516 1515 1514 1512 1511 1510 1509 1508 1508 1508 1508 1509 1510 1510 1511 1512 1512 1513 1514 1516 1518 1520 1521 1523
1522 1524 1525 1526 1527 1527 1527 1528 1527 1526 1526 1525 1524 1522 1521 1521 1520 1519 1518 1516 1515 1513 1512 1511 1510 1509 1508 1508 1507 1507 1508 1509 1509 1510 1511 1512 1512 1514 1515 1517 1519 1520 1522
1522 1524 1525 1525 1526 1527 1527 1527 1527 1526 1526 1525 1524 1522 1522 1521 1520 1519 1518 1516 1515 1514 1513 1511 1510 1509 1508 1507 1507 1507 1507 1508 1509 1510 1511 1511 1512 1513 1514 1516 1518 1519 1521
1521 1523 1524 1525 1526 1526 1527 1527 1527 1526 1526 1525 1524 1523 1522 1521 1520 1519 1517 1516 1515 1514 1513 1512 1510 1509 1508 1508 1507 1507 1507 1509 1508 1509 1510 1511 1511 1512 1514 1515 1517 1518 1520
1520 1522 1524 1525 1525 1526 1526 1526 1526 1526 1525 1525 1524 1523 1522 1521 1520 1519 1517 1516 1515 1514 1513 1512 1511 1510 1509 1509 1508 1509 1508 1508 1509 1510 1510 1510 1511 1512 1513 1515 1516 1518 1519
1520 1521 1523 1524 1524 1525 1525 1525 1525 1525 1525 1525 1524 1523 1522 1521 1520 1519 1517 1516 1515 1515 1514 1512 1511 1510 1510 1509 1509 1509 1510 1509 1510 1510 1510 1510 1511 1511 1512 1514 1515 1516 1518
1519 1520 1522 1522 1523 1524 1524 1524 1525 1525 1525 1525 1524 1523 1522 1521 1520 1518 1517 1516 1516 1515 1514 1513 1512 1511 1510 1510 1509 1509 1509 1509 1509 1510 1510 1511 1511 1511 1512 1513 1514 1516 1517
1518 1519 1520 1521 1522 1523 1523 1524 1524 1524 1524 1524 1523 1523 1522 1521 1520 1519 1518 1517 1516 1515 1514 1513 1512 1511 1511 1510 1510 1509 1509 1509 1509 1509 1509 1510 1510 1511 1511 1512 1513 1514 1516